GEFSMA_500_meanwind_126.txt.gz
Wind_Speed
19 19 19 19 20 20 19 19 20 20 19 19 19 19 19 19 19 19 19 18 18 18 18 18 17 17 17 16 16 16 16 15 15 15 15 15 15 15 15 16 17 17 18
23 21 21 21 21 21 20 20 21 21 20 20 20 21 21 20 19 20 21 21 20 20 20 20 19 19 19 19 19 18 18 17 17 17 17 17 18 18 18 18 18 19 20
24 23 23 22 23 22 21 21 21 22 22 22 22 21 22 21 21 22 22 22 22 22 22 21 21 21 20 21 21 21 20 20 20 20 19 20 20 20 20 20 21 22 22
27 25 25 24 24 24 23 23 23 21 22 22 22 23 23 22 22 22 22 22 23 23 23 23 22 23 22 23 23 23 23 22 22 22 22 22 22 23 23 23 24 24 25
27 28 27 26 26 25 25 24 23 22 21 21 22 22 23 23 23 23 23 23 23 24 24 25 24 25 25 25 25 26 25 25 24 24 24 24 25 25 26 26 26 27 28
29 28 27 28 27 27 27 26 25 25 24 23 24 24 24 24 24 25 24 24 25 25 25 26 26 26 26 27 27 26 27 27 27 27 27 27 27 28 28 29 29 30 31
29 28 28 28 28 28 28 27 28 28 26 25 25 25 25 25 25 26 26 26 26 26 26 26 27 27 28 28 28 28 29 29 29 29 29 29 30 30 31 31 32 32 33
29 28 27 27 28 28 29 28 28 27 27 27 26 26 27 27 28 28 28 28 28 28 28 28 28 28 29 29 29 29 30 31 31 31 31 31 32 32 33 33 34 35 35
29 30 29 27 27 28 28 28 27 27 28 29 28 27 27 28 28 29 31 31 30 30 30 30 30 30 30 30 30 31 31 31 31 32 32 33 33 33 34 35 36 37 38
30 30 29 28 28 28 28 28 29 29 29 29 30 29 29 29 30 30 31 32 32 31 31 31 32 32 32 32 32 32 32 32 33 33 33 34 34 35 36 37 38 39 39
30 30 30 30 30 30 29 29 29 30 29 30 30 30 30 30 30 31 32 33 33 33 33 33 33 34 34 34 33 34 34 34 34 34 35 35 36 37 37 38 39 40 41
30 30 30 30 31 31 30 30 30 30 29 30 30 31 31 30 31 33 32 33 33 33 34 34 34 35 35 35 35 35 36 35 35 36 37 38 38 38 39 40 40 41 41
30 30 30 30 31 31 31 32 32 31 31 31 31 31 32 32 33 33 33 33 34 34 34 33 34 35 36 36 36 36 36 37 37 38 39 38 39 39 40 41 41 41 41
30 30 31 31 30 30 31 32 33 32 32 32 31 31 32 33 33 34 33 33 33 33 34 34 35 36 37 37 37 37 37 38 39 39 39 39 40 40 40 41 41 41 41
29 29 30 30 30 31 32 31 32 32 32 31 31 31 31 32 33 34 34 34 34 34 34 34 35 36 37 37 37 38 38 38 39 39 40 40 40 39 40 41 41 41 41
29 29 29 29 30 31 31 32 31 31 31 32 32 32 32 32 33 34 34 34 35 36 36 35 35 36 37 37 37 38 38 39 40 40 40 40 40 40 40 40 40 40 39
27 27 28 28 28 29 30 30 31 32 32 32 33 33 33 33 33 34 34 34 34 35 35 35 36 36 37 38 39 39 39 39 39 39 40 40 40 40 39 38 38 37 36
26 27 27 27 27 28 29 29 30 31 32 32 32 33 32 32 32 33 34 34 34 34 35 35 35 36 37 37 37 37 38 38 37 38 38 38 38 37 37 36 35 34 34
26 27 27 27 27 27 28 28 28 29 29 30 31 31 31 31 32 33 33 33 33 33 33 34 35 36 36 36 35 36 36 36 37 36 36 36 35 35 33 32 32 31 30
25 25 25 25 25 25 25 25 26 27 28 29 29 29 29 30 30 30 31 31 32 32 33 33 34 33 34 34 34 34 34 34 34 34 33 33 32 31 30 30 29 29 28
23 23 22 23 23 23 24 24 25 25 26 26 26 27 27 28 29 29 29 30 30 30 30 31 31 31 31 31 31 32 32 31 31 31 30 29 28 28 27 27 26 25 24
21 21 21 21 21 22 21 22 23 24 24 25 25 25 26 27 27 27 28 28 28 28 28 28 29 29 29 29 29 29 29 28 27 27 26 25 25 25 24 23 21 21 20
18 19 19 18 19 20 20 20 20 21 21 21 21 22 22 22 23 23 24 25 25 24 25 26 26 27 27 27 27 26 25 25 24 23 23 22 22 22 21 20 19 19 18
16 16 16 16 17 17 17 17 17 17 18 18 18 18 19 19 19 20 20 21 22 22 23 24 24 24 24 23 23 22 22 21 20 20 19 19 19 18 17 16 16 16 16
13 13 14 14 14 14 14 14 14 15 15 15 16 16 16 16 16 17 18 19 19 20 21 21 20 20 19 19 18 18 18 19 18 17 17 16 15 14 14 13 13 13 14
11 11 11 11 12 11 12 12 12 12 12 12 12 13 14 14 15 16 16 16 16 16 16 16 16 16 16 15 15 15 15 15 14 14 14 14 12 11 11 11 11 12 12

GEFSMA_500_meanwind_132.txt.gz
Wind_Speed
21 21 21 21 21 21 20 20 21 20 21 20 20 20 19 19 19 20 20 20 20 20 20 19 19 18 18 18 18 18 18 17 17 17 16 16 16 16 16 16 17 17 17
22 23 23 22 22 22 22 22 22 22 22 21 21 21 21 21 20 21 21 21 21 22 22 21 21 20 20 20 20 20 20 20 20 20 19 19 19 19 19 19 20 20 20
23 24 24 23 24 24 24 24 24 23 23 22 22 23 23 23 22 22 22 23 23 23 24 23 22 22 22 22 22 22 21 21 22 22 22 22 22 22 22 22 22 22 23
25 25 26 26 26 25 25 26 26 26 25 25 24 24 24 24 24 24 24 24 24 24 25 25 24 24 24 24 24 24 24 24 25 25 25 25 24 24 25 25 25 25 25
27 28 29 29 28 27 27 27 28 28 27 27 27 26 26 25 25 25 25 26 26 25 25 25 25 26 26 26 26 26 26 27 27 27 27 27 26 27 27 27 27 28 28
29 29 30 30 30 30 28 28 28 29 29 29 28 27 27 28 28 27 27 27 28 28 27 27 27 27 28 28 28 28 28 28 28 28 28 28 28 29 29 29 30 30 30
31 31 31 31 30 30 30 29 29 29 30 30 29 29 29 30 30 30 29 30 29 29 29 29 29 29 30 30 30 30 30 30 30 30 30 30 30 31 32 32 32 33 33
32 32 32 32 32 31 30 31 30 31 31 31 32 31 31 33 33 32 32 32 31 31 31 32 32 31 31 32 32 32 32 32 33 32 32 32 32 33 33 33 33 34 34
32 32 32 32 33 32 32 32 31 32 33 33 34 34 33 33 33 32 32 33 33 33 33 33 34 34 33 33 33 33 33 33 34 34 34 34 33 33 34 34 34 35 35
33 33 32 32 32 33 32 32 32 31 33 34 34 34 33 32 32 32 33 34 34 34 35 35 36 35 35 35 35 35 35 35 35 35 36 35 35 35 35 35 35 36 37
33 33 33 32 32 33 32 33 33 32 33 32 32 33 33 33 32 33 33 34 35 35 35 36 37 38 38 37 36 36 36 35 36 36 36 36 37 37 36 36 37 38 38
33 33 33 33 34 34 34 34 34 33 33 33 33 33 33 34 33 33 34 34 36 36 36 37 37 38 39 38 37 36 36 35 36 36 37 37 37 38 38 38 38 39 39
32 32 32 32 32 33 34 35 34 33 33 33 33 34 34 35 36 35 35 36 36 37 37 38 38 37 37 37 37 38 37 37 37 38 38 38 38 38 38 39 39 39 40
31 31 31 31 32 33 33 34 34 34 34 35 35 35 35 36 37 37 37 37 37 38 39 39 38 38 38 38 38 39 39 39 38 39 39 40 39 39 39 39 39 39 39
30 30 30 31 32 32 32 33 33 32 33 34 35 35 36 36 37 38 39 39 39 38 38 38 38 38 38 38 38 39 39 40 39 39 40 40 40 40 40 40 40 40 39
30 30 30 30 30 31 31 32 32 32 32 33 34 35 35 35 35 37 38 38 38 38 37 37 36 37 38 38 38 38 39 39 39 39 39 40 40 40 39 39 39 39 39
29 29 29 29 29 30 30 30 31 31 31 32 32 32 34 35 35 36 36 37 37 37 36 36 36 37 37 37 38 38 38 38 39 38 39 39 39 39 39 38 38 38 37
29 29 29 28 28 28 29 29 30 30 31 31 31 31 32 33 35 35 36 36 37 37 37 36 37 37 37 37 37 38 38 39 38 38 37 37 37 38 38 37 36 35 35
27 27 28 28 27 27 28 28 29 29 29 29 29 29 30 32 33 33 34 35 36 36 36 36 36 36 36 37 37 38 38 38 38 38 37 36 36 36 36 35 34 33 32
26 25 25 26 26 26 26 26 26 26 26 27 27 27 27 28 29 31 32 32 32 32 32 32 32 33 34 35 35 36 37 38 37 37 36 35 34 34 33 33 31 31 31
24 24 24 24 24 23 24 24 24 23 24 24 25 25 25 26 27 27 28 28 29 29 29 29 29 30 31 32 33 34 34 34 33 33 32 31 31 30 29 29 29 29 29
22 21 21 21 21 21 21 21 21 21 21 22 22 23 23 23 23 23 25 25 26 27 27 27 28 27 28 29 30 31 31 29 29 28 28 28 27 26 26 26 26 26 25
20 19 19 19 19 19 20 20 20 20 20 20 20 21 21 21 21 21 21 21 22 23 23 24 25 25 25 26 26 26 26 25 24 24 24 24 24 24 24 24 24 23 23
17 16 17 17 17 18 18 18 18 18 18 18 18 19 19 19 19 18 18 18 19 19 20 21 22 22 22 22 21 20 20 19 19 19 20 20 21 22 22 21 21 21 21
14 14 14 15 15 15 16 15 15 15 15 16 16 16 16 16 15 15 15 15 16 17 18 18 18 18 18 17 17 17 16 16 16 17 18 18 18 19 19 19 19 19 19
11 11 11 11 11 12 12 12 12 12 12 13 12 12 12 12 12 12 12 13 13 13 14 14 14 14 15 14 13 13 13 14 15 15 16 16 16 17 17 16 16 16 16

GEFSMA_500_meanwind_138.txt.gz
Wind_Speed
22 22 22 21 22 22 22 22 21 22 21 20 20 20 20 20 20 19 19 20 20 20 20 20 19 19 19 19 19 19 19 18 18 18 18 17 17 17 17 17 17 17 17
24 24 24 24 24 24 24 23 23 23 23 22 22 21 21 21 21 21 22 22 22 22 20 21 21 20 21 21 21 21 21 20 20 20 20 20 19 19 19 19 19 19 19
26 26 27 26 26 26 26 26 25 24 24 23 24 24 24 24 23 23 23 23 23 23 23 22 22 21 22 22 22 22 22 22 22 22 22 22 21 21 21 21 22 22 22
28 28 27 27 27 26 26 26 26 25 25 25 25 25 26 26 26 25 25 25 25 25 25 23 23 23 23 23 24 23 23 23 23 24 24 23 23 23 23 24 24 24 24
30 29 29 28 28 28 28 28 27 27 27 27 27 27 27 27 27 28 28 28 27 26 26 25 25 25 24 24 24 25 25 25 24 25 25 25 26 26 26 26 27 27 27
30 30 30 29 29 28 29 29 29 28 28 28 28 28 29 29 29 29 28 29 28 28 27 27 27 26 26 26 26 26 26 27 27 27 27 27 27 27 28 29 29 29 29
31 31 31 31 31 30 30 30 30 30 30 29 30 29 30 30 29 28 29 29 30 30 30 30 29 28 28 27 28 28 28 29 29 29 28 28 29 29 30 30 30 31 31
31 32 33 33 32 32 32 32 32 32 32 31 31 31 31 31 31 30 30 30 29 30 31 31 30 30 29 30 29 30 30 31 30 31 31 31 31 32 32 32 32 32 32
32 32 33 34 34 35 34 34 34 34 34 33 33 32 31 31 31 31 32 32 32 33 33 32 31 31 31 31 31 32 32 33 33 33 33 33 32 31 31 32 33 34 35
32 32 33 33 34 35 35 36 36 35 35 34 34 34 33 32 33 32 32 33 34 33 33 34 33 32 32 33 33 34 34 34 35 36 35 34 33 33 33 33 34 35 36
32 33 33 34 34 34 34 35 35 35 35 35 35 35 34 33 34 34 33 34 34 34 34 34 34 33 33 33 34 34 35 36 36 37 37 36 36 35 35 34 34 34 35
32 33 33 33 33 33 33 33 34 34 33 33 34 34 34 34 34 35 35 34 34 34 34 34 35 35 34 34 35 35 36 37 36 36 36 36 36 36 37 37 36 36 37
32 32 32 33 33 33 33 33 33 33 33 33 32 33 34 35 35 35 35 35 35 35 34 34 34 35 36 35 35 35 35 36 35 35 35 35 35 35 36 37 37 36 36
31 31 31 32 32 32 32 32 33 33 33 33 33 33 33 33 34 35 34 34 34 34 34 33 34 35 36 36 36 36 36 35 35 35 35 35 35 35 35 35 35 35 35
30 30 30 30 30 30 31 31 31 31 31 31 32 32 33 33 33 33 34 35 35 34 34 34 34 35 36 37 36 36 36 35 35 35 36 36 36 35 35 34 34 35 35
29 30 30 30 30 30 30 30 30 30 30 30 30 31 32 32 31 32 33 33 34 35 34 34 33 34 36 37 36 35 35 35 35 36 36 35 34 34 34 34 35 35 34
29 29 29 29 30 29 28 28 27 28 28 28 29 29 29 30 31 32 32 32 32 33 34 34 34 33 33 33 33 34 34 34 34 34 34 33 33 33 34 34 34 34 34
28 28 28 28 28 27 26 26 27 27 27 27 28 28 28 29 30 30 31 31 31 32 32 33 32 32 32 31 30 30 31 32 33 33 33 33 33 33 33 33 33 34 34
28 28 28 27 27 26 26 26 26 26 26 26 27 27 27 27 28 28 29 29 29 29 29 30 30 29 29 29 29 29 30 29 29 30 31 31 32 33 33 33 33 32 31
27 27 27 26 26 25 25 25 25 24 24 25 25 25 25 25 25 25 26 26 26 27 27 27 27 27 27 27 28 28 28 28 29 28 29 30 30 30 31 31 30 29 29
25 25 24 24 24 23 23 23 23 23 23 23 23 23 23 23 23 23 24 24 24 24 25 24 24 25 25 26 26 26 26 27 28 28 28 28 27 27 27 26 26 25 25
22 22 22 22 21 21 20 20 21 21 21 20 20 20 21 21 21 21 21 21 21 21 21 21 21 22 22 22 23 23 24 25 24 25 25 24 23 23 23 23 23 22 22
20 19 19 19 18 18 17 17 17 18 19 18 18 19 19 19 19 18 18 18 18 17 18 19 19 19 19 20 20 20 21 20 21 21 20 20 20 20 20 19 19 19 19
17 17 16 16 15 15 14 14 13 14 15 15 16 16 15 15 16 15 15 15 15 15 16 16 16 16 16 16 17 17 17 18 18 18 17 17 17 17 16 17 17 17 18
14 13 13 13 12 12 12 12 11 12 12 12 13 13 12 12 12 13 13 13 13 13 13 13 13 14 14 14 15 15 14 14 14 14 13 14 14 14 15 15 15 16 16
12 11 11 11 10 10 9 10 10 10 10 10 9 9 10 10 10 10 10 10 10 10 10 11 11 11 11 11 11 11 12 11 11 11 12 12 12 12 13 13 13 13 13

GEFSMA_500_meanwind_144.txt.gz
Wind_Speed
21 22 22 22 21 21 21 22 22 22 22 22 22 22 22 22 21 20 19 19 20 20 18 18 19 18 17 18 18 18 18 18 18 18 18 17 17 17 17 17 17 17 18
23 23 24 24 23 22 22 23 23 23 24 23 24 24 22 23 22 22 22 21 21 20 20 20 20 19 19 19 19 19 19 20 20 19 20 20 19 19 19 19 19 19 19
24 24 24 25 25 24 24 24 24 24 24 24 23 23 23 23 24 24 23 23 22 21 21 21 20 21 21 20 19 20 20 21 21 21 21 22 22 21 21 21 21 21 21
24 24 24 24 25 25 25 25 25 25 25 25 24 24 24 23 24 24 24 24 24 23 23 23 23 22 22 22 22 21 21 22 22 23 23 23 24 24 23 23 23 23 23
25 25 24 25 25 26 27 27 26 25 26 26 25 25 25 25 25 25 25 25 25 25 24 24 25 24 24 23 23 23 23 23 23 24 24 24 25 25 25 25 25 26 26
26 26 25 26 26 26 27 27 28 28 27 27 27 26 26 27 26 26 27 27 28 28 26 26 26 26 25 25 25 26 25 25 25 25 25 25 26 26 26 26 26 27 27
27 27 27 27 27 27 27 28 28 28 29 29 29 28 27 27 27 28 28 28 28 28 27 27 27 27 27 26 27 27 27 28 28 28 27 27 28 28 28 28 28 28 29
28 28 29 29 29 29 30 29 28 29 29 29 30 29 28 28 29 29 29 29 28 27 27 27 28 28 28 28 29 29 28 29 30 30 30 30 30 30 30 30 30 30 30
29 29 29 30 31 31 31 31 30 29 30 30 31 31 31 30 30 30 30 30 30 29 28 29 29 29 29 29 30 30 30 30 32 32 32 32 31 31 31 31 32 32 31
29 29 29 30 31 31 31 30 30 31 31 31 31 32 32 31 31 31 31 30 30 30 30 30 30 31 31 31 30 31 32 32 33 33 32 32 32 32 31 32 32 32 32
29 29 29 30 30 30 30 30 30 30 31 31 31 32 32 32 32 32 32 32 32 31 31 31 31 31 31 31 31 31 32 33 33 34 33 33 33 34 33 32 32 32 33
29 29 29 28 29 29 28 28 29 29 29 30 30 30 31 31 31 32 31 31 32 32 32 32 32 32 32 32 32 32 32 33 33 33 33 34 34 34 34 34 33 33 33
29 28 28 28 28 28 27 27 27 28 27 28 28 28 29 30 30 30 30 30 30 30 30 30 31 32 32 31 32 33 33 33 33 34 35 34 35 34 34 33 33 33 34
28 28 28 28 29 28 27 27 27 26 26 27 27 27 28 28 29 29 29 29 29 29 29 29 30 30 31 31 32 33 34 33 33 34 34 34 34 34 34 34 34 34 34
28 27 27 26 26 26 26 26 26 26 26 26 26 26 27 27 28 28 29 29 29 29 29 29 29 30 30 30 31 33 33 33 33 33 34 34 34 33 34 35 35 35 35
27 27 26 25 25 25 25 25 26 25 25 25 26 26 27 27 28 28 28 29 29 28 29 30 30 30 30 29 29 30 31 31 31 31 32 32 33 33 33 34 35 35 34
27 26 26 25 25 25 25 25 24 24 24 24 24 25 26 26 27 27 28 28 28 28 28 28 28 28 28 28 28 28 28 29 29 30 30 30 31 32 32 33 33 33 33
27 26 26 26 25 25 25 24 24 24 24 23 23 24 25 25 26 26 26 26 26 26 26 26 27 27 27 27 27 27 27 27 28 28 29 29 30 30 30 31 31 31 31
27 26 25 25 24 24 24 25 24 24 23 23 23 23 23 24 24 25 25 25 24 24 24 25 25 26 26 26 26 26 26 26 26 27 28 29 28 28 29 29 30 30 30
24 24 24 23 24 24 23 23 23 22 22 22 22 22 22 22 22 22 22 22 22 22 22 22 23 24 24 25 25 25 25 25 26 27 27 27 28 27 27 28 29 29 29
21 21 21 21 22 21 21 21 21 21 21 20 20 20 20 19 19 18 19 19 20 20 20 20 20 20 21 22 23 23 23 23 23 24 25 25 26 26 26 26 26 26 26
19 19 20 20 19 19 20 20 20 20 19 18 18 18 18 18 17 17 18 17 17 17 17 17 17 18 18 19 19 20 20 20 20 21 22 23 23 23 23 23 24 24 24
19 19 18 18 18 17 17 17 16 16 16 16 16 16 16 15 16 15 15 15 15 15 15 15 15 16 16 16 16 17 17 17 18 18 19 19 20 20 20 20 20 21 22
16 15 15 15 14 14 13 12 12 13 13 13 13 12 12 12 12 11 12 13 12 12 12 12 12 13 13 13 13 14 14 15 15 16 16 17 18 17 17 17 17 17 17
13 13 12 11 11 10 10 10 11 11 10 10 10 9 9 9 8 9 10 10 10 9 9 9 9 10 10 10 10 10 11 11 12 13 14 14 15 15 14 14 14 15 15
12 11 10 9 8 8 8 8 8 7 6 6 6 6 6 6 6 6 7 6 6 6 6 6 6 6 6 7 7 7 8 9 9 10 10 11 12 12 13 13 14 14 15

GEFSMA_500_meanwind_150.txt.gz
Wind_Speed
20 20 21 21 22 23 22 23 24 25 24 24 24 23 23 23 22 21 21 21 21 21 21 20 20 20 20 20 20 19 19 19 18 17 17 17 17 17 16 16 16 16 16
22 22 22 23 23 24 24 24 25 24 24 25 25 25 25 25 24 23 23 23 23 22 22 21 22 22 21 21 21 20 20 19 19 19 19 19 19 19 19 18 18 18 18
22 23 23 24 25 25 25 25 25 25 25 26 27 26 26 26 25 25 25 25 24 24 24 23 22 23 22 22 23 22 21 21 21 21 21 21 21 21 21 21 21 21 21
23 24 24 24 25 25 26 26 26 26 27 27 28 28 27 26 26 26 26 25 25 24 24 25 24 24 24 24 23 23 23 23 23 23 22 22 22 23 23 23 23 23 23
23 24 23 24 25 26 26 27 27 27 27 28 28 29 29 29 28 27 27 26 25 25 26 26 26 25 25 25 25 25 25 24 24 24 24 24 24 24 24 25 25 25 26
23 24 24 24 25 26 27 28 28 28 29 29 29 29 30 30 30 29 28 28 27 27 27 27 27 27 26 26 26 27 26 26 26 27 26 26 26 26 26 26 27 27 28
24 25 26 26 26 27 28 28 29 29 29 30 30 30 30 31 31 31 30 29 29 29 28 28 29 29 28 27 27 27 28 28 28 28 28 28 28 29 29 29 29 30 30
25 26 27 27 28 28 29 29 30 30 30 31 31 31 31 32 32 32 31 31 30 29 29 29 29 30 30 29 28 28 29 30 32 31 30 30 30 30 31 31 31 31 31
26 26 27 28 28 29 29 30 30 30 30 31 31 31 31 32 33 33 32 31 30 30 29 29 30 30 30 30 29 29 30 31 31 32 33 33 33 33 33 33 32 33 32
27 27 28 28 28 29 29 29 30 30 30 30 31 32 32 32 31 32 32 31 31 31 30 30 30 30 30 31 31 30 31 32 32 33 34 35 35 35 35 34 34 34 34
28 28 28 28 29 29 29 29 30 30 30 30 30 30 30 30 30 30 30 31 31 31 31 31 30 30 30 30 31 31 31 32 33 33 33 34 35 35 36 37 36 36 36
28 28 29 29 29 30 30 29 29 29 29 28 28 28 28 29 28 28 29 29 30 30 31 32 31 31 31 31 32 32 32 33 34 34 34 35 35 35 36 36 36 37 36
28 29 29 29 29 29 29 28 28 28 28 28 27 27 27 27 27 27 27 28 29 29 30 30 30 30 30 30 31 32 32 32 33 34 35 35 35 35 36 36 36 37 37
29 29 29 29 29 29 28 28 28 28 28 28 27 27 27 26 27 27 27 27 28 29 29 29 30 30 30 30 31 31 32 32 33 34 34 35 35 35 36 36 36 37 38
28 28 28 28 27 27 27 27 28 28 28 28 28 27 27 27 28 28 27 27 28 28 28 29 29 30 30 31 31 32 32 32 33 34 34 34 35 35 36 36 36 36 36
28 28 27 27 26 26 26 26 26 27 27 27 27 27 27 27 28 28 28 28 28 27 28 29 29 30 31 31 31 32 33 33 34 34 34 34 34 35 35 35 35 35 35
28 28 27 27 27 27 27 26 26 26 26 26 26 27 28 28 27 27 27 28 28 27 27 28 29 30 31 31 31 32 32 32 32 32 33 34 34 34 35 35 35 35 36
27 27 27 27 27 26 26 26 26 26 26 26 26 26 26 27 27 27 27 27 27 27 27 28 28 29 29 30 30 30 30 30 31 30 31 32 33 32 33 34 34 35 35
25 24 25 25 25 25 26 26 26 26 26 26 26 25 25 26 26 26 26 26 26 26 26 27 27 28 28 28 28 29 29 29 29 30 30 31 31 31 31 31 32 32 32
24 23 23 23 23 23 24 24 24 24 24 24 24 23 23 23 23 23 23 23 24 24 24 25 25 26 26 26 26 26 27 27 27 27 27 27 27 27 28 28 29 29 29
21 21 21 21 21 21 21 21 22 21 21 21 21 20 20 20 20 20 20 20 21 21 22 22 22 23 23 23 23 23 24 23 23 23 23 22 23 24 24 25 25 26 26
19 19 19 19 19 19 19 19 19 19 18 18 18 17 17 17 17 17 17 17 18 19 19 19 19 18 19 19 19 19 19 19 19 19 20 20 21 21 21 22 22 22 23
17 17 17 17 17 17 17 16 16 15 15 15 15 15 15 14 14 14 14 14 15 16 16 15 16 16 16 16 16 16 15 15 16 16 17 18 18 19 19 19 19 19 20
15 15 15 15 15 14 13 12 12 12 12 12 12 12 11 11 11 11 11 12 12 12 12 12 12 12 12 13 12 12 12 12 13 14 14 15 15 16 17 17 17 18 18
13 13 13 13 12 12 11 10 9 9 9 8 8 8 8 8 8 8 8 9 9 9 9 9 9 9 9 9 10 10 10 10 11 11 11 12 13 14 15 16 17 17 18
12 11 11 11 10 9 8 8 8 7 6 5 5 5 5 5 5 5 6 5 5 6 6 6 6 6 6 7 8 8 8 9 9 10 11 12 13 14 14 16 17 18 18